This is the latest recevied weather packets stored in our database for station/object KB1JDX. If no packets are shown the sender has not sent any weather packets the latest 10 day(s).
| Time | Temp. | Humidity | Pressure | Rain* | Wind** | Luminosity | Snow |
|---|---|---|---|---|---|---|---|
| 1777734031 | 11.67° C | 57% | 1011.3 hPa | 0 mm | 0 m/s | - | - |
| 1777732831 | 11.11° C | 54% | 1011.4 hPa | 0 mm | 0 m/s | - | - |
| 1777731566 | 11.11° C | 56% | 1011.5 hPa | 0 mm | 0 m/s | - | - |
| 1777730431 | 10.56° C | 53% | 1011.6 hPa | 0 mm | 0 m/s | - | - |
| 1777729231 | 10.56° C | 48% | 1011.6 hPa | 0 mm | 0 m/s | - | - |
| 1777728032 | 10° C | 43% | 1011.9 hPa | 0 mm | 0 m/s | - | - |
| 1777727966 | 10° C | 42% | 1011.8 hPa | 0 mm | 0 m/s | - | - |
| 1777726831 | 9.44° C | 41% | 1011.9 hPa | 0 mm | 0 m/s | - | - |
| 1777725631 | 9.44° C | 44% | 1012.3 hPa | 0 mm | 0 m/s | - | - |
| 1777724433 | 9.44° C | 49% | 1012.1 hPa | 0 mm | 0 m/s | - | - |
| 1777724366 | 9.44° C | 49% | 1012.1 hPa | 0 mm | 0 m/s | - | - |
| 1777723270 | 9.44° C | 51% | 1012.6 hPa | 0 mm | 0 m/s | - | - |
| 1777723232 | 9.44° C | 51% | 1012.6 hPa | 0 mm | 0 m/s | - | - |
| 1777720832 | 9.44° C | 48% | 1011.9 hPa | 0 mm | 0 m/s | - | - |
| 1777720766 | 9.44° C | 47% | 1011.9 hPa | 0 mm | 0 m/s | - | - |
| 1777719631 | 8.89° C | 50% | 1011.8 hPa | 0 mm | 0 m/s | - | - |
| 1777718432 | 8.89° C | 52% | 1011.6 hPa | 0 mm | 0 m/s | - | - |
| 1777717231 | 8.89° C | 52% | 1011.5 hPa | 0 mm | 0 m/s | - | - |
| 1777717166 | 8.89° C | 52% | 1011.6 hPa | 0 mm | 0 m/s | - | - |
| 1777716031 | 8.89° C | 52% | 1011.5 hPa | 0 mm | 0 m/s | - | - |
| 1777714831 | 8.33° C | 53% | 1011.4 hPa | 0 mm | 0 m/s | - | - |
| 1777713631 | 8.89° C | 55% | 1011.3 hPa | 0 mm | 0 m/s | - | - |
| 1777713566 | 8.89° C | 55% | 1011.2 hPa | 0 mm | 0 m/s | - | - |
| 1777712431 | 8.89° C | 57% | 1011.3 hPa | 0 mm | 0 m/s | - | - |
| 1777711231 | 8.89° C | 59% | 1011.2 hPa | 0 mm | 0 m/s | - | - |
* Rain latest hour (hover to see other rain measurements)
** Current wind speed in m/s (hover to see current wind gust speed)